Погода на Острове Родригес

Маврикий     19°42′00″S   63°25′00″E
темп.,
°C
ветер,
м/с
пор.,
м/с
влажн.,
%
обл.,
%
осадки,
мм/ч
давл.,
гПа
погр.,
м
10 августа, ср
ср1001:00+21юв1011745 0.1 10201073
04:00+21юв10117619 0.2 10191075
07:00+21юв13137439 0.5 10211168
10:00+21юв13137231 0.5 10221222
13:00+21юв12137249 0.1 10201180
16:00+21юв12126888 0.1 10211372
19:00+21вюв121467100 0.0 10221527
22:00+21вюв121365100 0.1 10231666
11 августа, чт
чт1101:00+20вюв13136828 0.1 10231535
04:00+20вюв121367100 0.2 10221556
07:00+20вюв121368100 0.3 10231523
10:00+20вюв13146985 0.4 10241562
13:00+21вюв12136896 0.3 10221458
16:00+21вюв12136940 0.4 10221490
19:00+21вюв121469100 0.2 10231676
22:00+21вюв121375100 0.6 10241288
12 августа, пт
пт1201:00+20вюв111271100 0.3 10241497
04:00+20вюв111268100 0.5 10231463
07:00+20вюв111173100 0.3 10241258
10:00+21вюв10116896 0.5 10241367
13:00+21вюв10116710 0.0 10221323
16:00+21вюв11117123 0.3 10221192
19:00+21вюв121269100 0.2 10231509
22:00+20вюв101273100 0.4 10231292
13 августа, сб
сб1301:00+20вюв111173100 0.3 10221172
04:00+20вюв101171100 0.5 10211074
07:00+21вюв11116892 0.2 10221202
10:00+20вюв11117099 0.4 10231291
13:00+21вюв10116714 0.1 10211326
16:00+21вюв10116986 0.3 10201413
19:00+21вюв101168100 0.2 10221321
22:00+20вюв101173100 0.4 10221014
14 августа, вс
вс1401:00+21вюв111273100 0.3 10221111
04:00+21вюв11116931 0.3 10211199
07:00+21вюв11116986 0.1 10221298
10:00+21вюв101172100 0.2 10231161
13:00+21вюв10106997 0.1 10211273
16:00+21вюв10116893 0.3 10201401
19:00+22вюв1011719 0.2 10211144
22:00+21вюв101175100 0.6 10211130